| time (UTC) | temp F | wind direction | speed knots | gust knots | rain 1hr in | rain 24hr in | rain mn in | humidity % | barometer mb |
| 20260506093153 | 56 | 92 | 3.5 | 8.7 | 0.00 | 1.10 | 0.21 | 95 | 1007.6 |
| 20260506092139 | 55 | 81 | 2.6 | 7.8 | 0.00 | 1.10 | 0.21 | 96 | 1007.6 |
| 20260506091127 | 55 | 146 | 2.6 | 8.7 | 0.00 | 1.10 | 0.21 | 96 | 1007.5 |
| 20260506090133 | 55 | 13 | 2.6 | 6.1 | 0.00 | 1.10 | 0.21 | 96 | 1007.5 |
| 20260506085158 | 55 | 86 | 2.6 | 10.4 | 0.04 | 1.30 | 0.21 | 95 | 1007.6 |
| 20260506084124 | 55 | 86 | 3.5 | 10.4 | 0.08 | 1.30 | 0.21 | 95 | 1007.6 |
| 20260506083134 | 55 | 9 | 3.5 | 10.4 | 0.12 | 1.30 | 0.21 | 96 | 1007.8 |
| 20260506082140 | 55 | 148 | 0.9 | 7.0 | 0.16 | 1.30 | 0.21 | 96 | 1007.8 |
| 20260506081127 | 55 | 140 | 0.0 | 5.2 | 0.16 | 1.30 | 0.21 | 96 | 1007.9 |
| 20260506080135 | 55 | 141 | 0.0 | 6.1 | 0.16 | 1.30 | 0.21 | 96 | 1008.0 |
| 20260506073134 | 55 | 127 | 0.9 | 3.5 | 0.04 | 1.46 | 0.18 | 96 | 1008.3 |
| 20260506072139 | 55 | 126 | 0.0 | 1.7 | 0.00 | 1.42 | 0.17 | 96 | 1008.3 |
| 20260506071128 | 55 | 213 | 0.0 | 1.7 | 0.00 | 1.42 | 0.17 | 96 | 1008.3 |
| 20260506070132 | 54 | 147 | 0.0 | 3.5 | 0.00 | 1.42 | 0.17 | 97 | 1008.6 |
| 20260506062155 | 54 | 82 | 0.9 | 2.6 | 0.04 | 2.13 | 0.17 | 97 | 1008.5 |
| 20260506061138 | 53 | 95 | 0.0 | 0.9 | 0.12 | 2.13 | 0.17 | 97 | 1008.5 |
| 20260506060138 | 53 | 5 | 0.0 | 0.9 | 0.20 | 2.13 | 0.17 | 96 | 1008.4 |
| 20260506051124 | 53 | 5 | 0.0 | 0.9 | 0.28 | 2.52 | 0.13 | 96 | 1008.7 |
| 20260506050134 | 53 | 5 | 0.0 | 0.9 | 0.24 | 2.48 | 0.12 | 96 | 1008.6 |
| 20260506045121 | 53 | 5 | 0.0 | 0.9 | 0.16 | 2.68 | 0.10 | 96 | 1008.8 |
| 20260506044127 | 53 | 5 | 0.0 | 0.9 | 0.16 | 2.68 | 0.10 | 96 | 1008.8 |
| 20260506043133 | 53 | 5 | 0.0 | 0.0 | 0.16 | 2.68 | 0.10 | 96 | 1009.0 |
| 20260506042124 | 53 | 5 | 0.0 | 0.0 | 0.08 | 2.60 | 0.08 | 96 | 1009.2 |
| 20260506041130 | 53 | 5 | 0.0 | 0.9 | 0.00 | 2.52 | 0.06 | 96 | 1009.3 |
| 20260506040135 | 53 | 5 | 0.0 | 0.9 | 0.04 | 2.52 | 0.06 | 96 | 1009.3 |
| 20260506035126 | 53 | 5 | 0.0 | 0.9 | 0.20 | 2.60 | 0.06 | 96 | 1009.2 |
| 20260506034133 | 53 | 5 | 0.0 | 0.9 | 0.24 | 2.60 | 0.06 | 96 | 1009.5 |
| 20260506033120 | 53 | 5 | 0.0 | 1.7 | 0.24 | 2.60 | 0.06 | 96 | 1009.4 |
| 20260506032147 | 53 | 5 | 0.0 | 2.6 | 0.24 | 2.60 | 0.06 | 96 | 1009.5 |
| 20260506031132 | 53 | 5 | 0.0 | 1.7 | 0.24 | 2.60 | 0.06 | 96 | 1009.6 |
| 20260506030123 | 53 | 5 | 0.0 | 0.0 | 0.20 | 2.56 | 0.05 | 96 | 1009.8 |
| 20260506025128 | 53 | 5 | 0.0 | 0.0 | 0.04 | 2.40 | 0.01 | 96 | 1010.1 |
| 20260506024134 | 53 | 5 | 0.0 | 0.0 | 0.00 | 2.36 | 0.00 | 96 | 1010.2 |
| 20260506023126 | 53 | 5 | 0.0 | 1.7 | 0.00 | 2.36 | 0.00 | 96 | 1010.3 |
| 20260506022131 | 53 | 5 | 0.0 | 0.0 | 0.00 | 2.36 | 0.00 | 96 | 1010.4 |
| 20260506021137 | 53 | 5 | 0.0 | 1.7 | 0.00 | 2.36 | 0.00 | 96 | 1010.4 |
| 20260506020123 | 53 | 5 | 0.0 | 0.9 | 0.00 | 2.36 | 0.00 | 96 | 1010.4 |
| 20260506015130 | 53 | 5 | 0.0 | 0.9 | 0.00 | 2.36 | 0.00 | 96 | 1010.5 |
| 20260506014156 | 53 | 5 | 0.0 | 0.0 | 0.00 | 2.36 | 0.00 | 96 | 1010.6 |
| 20260506013121 | 53 | 5 | 0.0 | 0.0 | 0.00 | 2.36 | 0.00 | 96 | 1010.7 |
| 20260506012127 | 53 | 5 | 0.0 | 0.0 | 0.00 | 2.36 | 0.00 | 96 | 1010.7 |
| 20260506011134 | 53 | 5 | 0.0 | 0.0 | 0.00 | 2.36 | 0.00 | 96 | 1010.9 |
| 20260506010122 | 53 | 5 | 0.0 | 0.0 | 0.00 | 2.36 | 0.00 | 96 | 1011.0 |
| 20260506005126 | 53 | 5 | 0.0 | 0.0 | 0.00 | 2.36 | 0.00 | 96 | 1011.1 |
| 20260506004130 | 53 | 5 | 0.0 | 0.9 | 0.00 | 2.36 | 0.00 | 96 | 1011.1 |
| 20260506003157 | 53 | 5 | 0.0 | 0.0 | 0.00 | 2.36 | 0.00 | 96 | 1011.4 |
| 20260506002147 | 53 | 5 | 0.0 | 0.0 | 0.00 | 2.36 | 0.00 | 96 | 1011.4 |
| 20260506001132 | 53 | 5 | 0.0 | 1.7 | 0.00 | 2.36 | 0.00 | 96 | 1011.4 |
| 20260506000140 | 53 | 5 | 0.0 | 1.7 | 0.00 | 2.36 | 0.00 | 96 | 1011.4 |
| 20260505235125 | 53 | 5 | 0.0 | 0.9 | 0.00 | 2.36 | 0.00 | 96 | 1011.5 |
| 20260505234156 | 53 | 5 | 0.0 | 0.9 | 0.00 | 2.36 | 0.00 | 96 | 1011.7 |
| 20260505233200 | 53 | 5 | 0.0 | 0.9 | 0.00 | 2.36 | 0.00 | 96 | 1011.9 |
| 20260505232125 | 53 | 5 | 0.0 | 0.0 | 0.00 | 2.36 | 0.00 | 96 | 1012.0 |
| 20260505231153 | 53 | 5 | 0.0 | 1.7 | 0.00 | 2.36 | 0.00 | 96 | 1011.9 |
| 20260505230139 | 53 | 5 | 0.0 | 0.0 | 0.00 | 2.36 | 0.00 | 96 | 1012.2 |
| 20260505225129 | 53 | 5 | 0.0 | 0.0 | 0.00 | 2.36 | 0.00 | 96 | 1012.1 |
| 20260505224157 | 53 | 5 | 0.0 | 0.0 | 0.00 | 2.36 | 0.00 | 96 | 1012.4 |
| 20260505223141 | 53 | 5 | 0.0 | 0.0 | 0.00 | 2.36 | 0.00 | 96 | 1012.4 |
| 20260505222127 | 53 | 5 | 0.0 | 0.0 | 0.00 | 2.36 | 0.00 | 96 | 1012.4 |
| 20260505221136 | 53 | 5 | 0.0 | 0.9 | 0.00 | 2.36 | 0.00 | 96 | 1012.3 |
| 20260505220143 | 53 | 5 | 0.0 | 2.6 | 0.00 | 2.36 | 0.00 | 96 | 1012.3 |
| 20260505215129 | 53 | 5 | 0.9 | 3.5 | 0.00 | 2.36 | 0.60 | 96 | 1012.4 |
| 20260505214135 | 53 | 11 | 0.0 | 3.5 | 0.00 | 2.36 | 0.60 | 96 | 1012.5 |
| 20260505213158 | 53 | 11 | 0.0 | 1.7 | 0.00 | 2.36 | 0.60 | 96 | 1012.6 |
| 20260505212124 | 53 | 11 | 0.0 | 0.9 | 0.00 | 2.36 | 0.60 | 96 | 1012.7 |
| 20260505211129 | 53 | 11 | 0.0 | 0.9 | 0.00 | 2.36 | 0.60 | 96 | 1012.9 |
| 20260505210128 | 53 | 11 | 0.0 | 0.9 | 0.00 | 2.36 | 0.60 | 96 | 1012.9 |
| 20260505205127 | 53 | 11 | 0.0 | 1.7 | 0.00 | 2.36 | 0.60 | 96 | 1012.9 |
| 20260505204135 | 53 | 11 | 0.0 | 0.9 | 0.00 | 2.36 | 0.60 | 96 | 1013.0 |
| 20260505203140 | 53 | 11 | 0.0 | 2.6 | 0.00 | 2.36 | 0.60 | 96 | 1012.9 |
| 20260505202122 | 53 | 11 | 0.0 | 0.9 | 0.00 | 2.36 | 0.60 | 96 | 1013.1 |
| 20260505201124 | 53 | 11 | 0.0 | 1.7 | 0.00 | 2.36 | 0.60 | 96 | 1013.1 |
| 20260505200132 | 53 | 11 | 0.0 | 2.6 | 0.00 | 2.36 | 0.60 | 95 | 1013.0 |
| 20260505195139 | 53 | 11 | 0.0 | 0.9 | 0.00 | 2.36 | 0.60 | 95 | 1013.0 |
| 20260505194137 | 53 | 11 | 0.0 | 1.7 | 0.00 | 2.36 | 0.60 | 95 | 1012.9 |
| 20260505193121 | 53 | 11 | 0.0 | 1.7 | 0.00 | 2.36 | 0.60 | 96 | 1012.8 |
| 20260505192132 | 53 | 11 | 0.9 | 2.6 | 0.00 | 2.36 | 0.60 | 95 | 1012.8 |
| 20260505191137 | 53 | 11 | 0.0 | 2.6 | 0.00 | 2.36 | 0.60 | 96 | 1012.8 |
| 20260505190122 | 53 | 11 | 0.0 | 1.7 | 0.00 | 2.36 | 0.60 | 95 | 1012.7 |
| 20260505185122 | 53 | 11 | 0.9 | 2.6 | 0.00 | 2.36 | 0.60 | 95 | 1012.5 |
| 20260505184131 | 53 | 11 | 0.0 | 1.7 | 0.00 | 2.36 | 0.60 | 96 | 1012.5 |
| 20260505183136 | 53 | 11 | 0.0 | 1.7 | 0.00 | 2.36 | 0.60 | 96 | 1012.5 |
| 20260505182201 | 53 | 11 | 0.0 | 1.7 | 0.00 | 2.36 | 0.60 | 96 | 1012.5 |
| 20260505181202 | 53 | 11 | 0.0 | 1.7 | 0.04 | 2.36 | 0.60 | 96 | 1012.5 |
| 20260505180128 | 53 | 11 | 0.9 | 2.6 | 0.04 | 2.36 | 0.60 | 95 | 1012.5 |
| 20260505175127 | 53 | 11 | 0.0 | 1.7 | 0.04 | 2.36 | 0.60 | 95 | 1012.5 |
| 20260505174129 | 53 | 11 | 0.0 | 2.6 | 0.04 | 2.36 | 0.60 | 95 | 1012.5 |
| 20260505173132 | 53 | 11 | 0.0 | 2.6 | 0.04 | 2.36 | 0.60 | 95 | 1012.5 |
| 20260505172136 | 53 | 11 | 0.9 | 2.6 | 0.04 | 2.36 | 0.60 | 95 | 1012.5 |
| 20260505171123 | 54 | 11 | 0.9 | 1.7 | 0.00 | 2.32 | 0.59 | 95 | 1012.5 |
| 20260505170150 | 54 | 11 | 0.0 | 0.9 | 0.00 | 2.32 | 0.59 | 95 | 1012.7 |
| 20260505165154 | 54 | 11 | 0.0 | 2.6 | 0.00 | 2.32 | 0.59 | 95 | 1012.7 |
| 20260505164140 | 54 | 11 | 0.9 | 1.7 | 0.00 | 2.32 | 0.59 | 95 | 1012.8 |
| 20260505163128 | 54 | 14 | 0.9 | 3.5 | 0.00 | 2.32 | 0.59 | 95 | 1012.8 |
| 20260505162129 | 54 | 19 | 0.9 | 3.5 | 0.00 | 2.32 | 0.59 | 95 | 1012.8 |
| 20260505161130 | 54 | 9 | 0.0 | 3.5 | 0.00 | 2.32 | 0.59 | 94 | 1012.8 |
| 20260505160135 | 54 | 26 | 0.9 | 5.2 | 0.00 | 2.32 | 0.59 | 94 | 1012.8 |
| 20260505153127 | 54 | 28 | 0.0 | 0.9 | 0.00 | 2.32 | 0.59 | 94 | 1013.1 |
| 20260505152133 | 54 | 28 | 0.9 | 2.6 | 0.00 | 2.32 | 0.59 | 94 | 1013.0 |
| 20260505151140 | 54 | 28 | 0.0 | 1.7 | 0.00 | 2.32 | 0.59 | 94 | 1013.1 |
| 20260505150141 | 54 | 28 | 0.0 | 1.7 | 0.00 | 2.32 | 0.59 | 94 | 1013.0 |
| 20260505140138 | 54 | 28 | 0.9 | 5.2 | 0.00 | 2.32 | 0.59 | 95 | 1013.1 |
| 20260505130200 | 53 | 5 | 0.9 | 3.5 | 0.00 | 2.28 | 0.58 | 94 | 1013.5 |
| 20260505124148 | 54 | 360 | 0.9 | 2.6 | 0.04 | 2.28 | 0.58 | 93 | 1013.7 |
| 20260505123133 | 54 | 105 | 0.0 | 2.6 | 0.04 | 2.28 | 0.58 | 93 | 1013.7 |
| 20260505122143 | 54 | 37 | 0.0 | 4.3 | 0.04 | 2.28 | 0.58 | 93 | 1013.5 |
| 20260505121127 | 54 | 22 | 0.9 | 4.3 | 0.04 | 2.28 | 0.58 | 93 | 1013.5 |
| 20260505120132 | 54 | 44 | 0.9 | 4.3 | 0.04 | 2.28 | 0.58 | 93 | 1013.5 |
| 20260505115139 | 54 | 28 | 0.9 | 5.2 | 0.00 | 2.24 | 0.57 | 93 | 1013.7 |
| 20260505114128 | 54 | 36 | 0.9 | 3.5 | 0.00 | 2.24 | 0.57 | 93 | 1013.8 |
| 20260505113134 | 54 | 24 | 0.9 | 4.3 | 0.04 | 2.24 | 0.57 | 92 | 1013.7 |
| 20260505112158 | 54 | 45 | 0.9 | 4.3 | 0.04 | 2.24 | 0.57 | 92 | 1013.7 |
| 20260505111123 | 54 | 345 | 1.7 | 4.3 | 0.04 | 2.24 | 0.57 | 91 | 1013.8 |
| 20260505110149 | 54 | 360 | 0.9 | 7.0 | 0.04 | 2.24 | 0.57 | 90 | 1013.8 |
| 20260505102148 | 55 | 33 | 1.7 | 4.3 | 0.00 | 2.20 | 0.56 | 91 | 1013.9 |
| 20260505101136 | 54 | 22 | 1.7 | 7.0 | 0.04 | 2.20 | 0.56 | 91 | 1013.9 |
| 20260505100141 | 54 | 49 | 2.6 | 5.2 | 0.08 | 2.20 | 0.56 | 91 | 1014.0 |
| 20260505095128 | 54 | 109 | 0.9 | 4.3 | 0.12 | 2.20 | 0.56 | 92 | 1014.0 |
| 20260505094133 | 54 | 26 | 1.7 | 5.2 | 0.20 | 2.20 | 0.56 | 91 | 1014.1 |